Year,Month,Day,Hour,Minute,Value (Times are PST for temperature in C)
2011,02,16,00,00,2.00
2011,02,16,00,01,2.00
2011,02,16,00,02,2.00
2011,02,16,00,03,1.90
2011,02,16,00,04,1.90
2011,02,16,00,05,1.90
2011,02,16,00,06,1.90
2011,02,16,00,07,1.90
2011,02,16,00,08,1.90
2011,02,16,00,09,1.90
2011,02,16,00,10,1.90
2011,02,16,00,11,1.90
2011,02,16,00,12,1.90
2011,02,16,00,13,1.90
2011,02,16,00,14,1.90
2011,02,16,00,15,1.90
2011,02,16,00,16,1.90
2011,02,16,00,17,1.90
2011,02,16,00,18,1.90
2011,02,16,00,19,1.90
2011,02,16,00,20,1.90
2011,02,16,00,21,1.90
2011,02,16,00,22,1.90
2011,02,16,00,23,1.90
2011,02,16,00,24,1.90
2011,02,16,00,25,1.90
2011,02,16,00,26,1.90
2011,02,16,00,27,1.90
2011,02,16,00,28,1.90
2011,02,16,00,29,1.90
2011,02,16,00,30,1.90
2011,02,16,00,31,1.90
2011,02,16,00,32,1.90
2011,02,16,00,33,1.90
2011,02,16,00,34,2.00
2011,02,16,00,35,2.00
2011,02,16,00,36,2.00
2011,02,16,00,37,2.00
2011,02,16,00,38,2.00
2011,02,16,00,39,2.00
2011,02,16,00,40,2.00
2011,02,16,00,41,2.10
2011,02,16,00,42,2.10
2011,02,16,00,43,2.10
2011,02,16,00,44,2.10
2011,02,16,00,45,2.10
2011,02,16,00,46,2.20
2011,02,16,00,47,2.20
2011,02,16,00,48,2.20
2011,02,16,00,49,2.20
2011,02,16,00,50,2.20
2011,02,16,00,51,2.20
2011,02,16,00,52,2.20
2011,02,16,00,53,2.20
2011,02,16,00,54,2.20
2011,02,16,00,55,2.20
2011,02,16,00,56,2.20
2011,02,16,00,57,2.20
2011,02,16,00,58,2.20
2011,02,16,00,59,2.20
2011,02,16,01,00,2.20
2011,02,16,01,01,2.20
2011,02,16,01,02,2.20
2011,02,16,01,03,2.20
2011,02,16,01,04,2.20
2011,02,16,01,05,2.20
2011,02,16,01,06,2.20
2011,02,16,01,07,2.20
2011,02,16,01,08,2.30
2011,02,16,01,09,2.30
2011,02,16,01,10,2.30
2011,02,16,01,11,2.30
2011,02,16,01,12,2.30
2011,02,16,01,13,2.20
2011,02,16,01,14,2.20
2011,02,16,01,15,2.20
2011,02,16,01,16,2.20
2011,02,16,01,17,2.20
2011,02,16,01,18,2.20
2011,02,16,01,19,2.20
2011,02,16,01,20,2.20
2011,02,16,01,21,2.20
2011,02,16,01,22,2.20
2011,02,16,01,23,2.20
2011,02,16,01,24,2.20
2011,02,16,01,25,2.20
2011,02,16,01,26,2.20
2011,02,16,01,27,2.20
2011,02,16,01,28,2.20
2011,02,16,01,29,2.20
2011,02,16,01,30,2.10
2011,02,16,01,31,2.10
2011,02,16,01,32,2.10
2011,02,16,01,33,2.10
2011,02,16,01,34,2.20
2011,02,16,01,35,2.20
2011,02,16,01,36,2.20
2011,02,16,01,37,2.20
2011,02,16,01,38,2.20
2011,02,16,01,39,2.20
2011,02,16,01,40,2.20
2011,02,16,01,41,2.20
2011,02,16,01,42,2.20
2011,02,16,01,43,2.20
2011,02,16,01,44,2.20
2011,02,16,01,45,2.20
2011,02,16,01,46,2.20
2011,02,16,01,47,2.20
2011,02,16,01,48,2.20
2011,02,16,01,49,2.20
2011,02,16,01,50,2.20
2011,02,16,01,51,2.20
2011,02,16,01,52,2.20
2011,02,16,01,53,2.20
2011,02,16,01,54,2.20
2011,02,16,01,55,2.20
2011,02,16,01,56,2.20
2011,02,16,01,57,2.20
2011,02,16,01,58,2.30
2011,02,16,01,59,2.30
2011,02,16,02,00,2.30
2011,02,16,02,01,2.30
2011,02,16,02,02,2.40
2011,02,16,02,03,2.40
2011,02,16,02,04,2.40
2011,02,16,02,05,2.40
2011,02,16,02,06,2.40
2011,02,16,02,07,2.40
2011,02,16,02,08,2.40
2011,02,16,02,09,2.40
2011,02,16,02,10,2.40
2011,02,16,02,11,2.40
2011,02,16,02,12,2.40
2011,02,16,02,13,2.40
2011,02,16,02,14,2.40
2011,02,16,02,15,2.40
2011,02,16,02,16,2.40
2011,02,16,02,17,2.40
2011,02,16,02,18,2.40
2011,02,16,02,19,2.40
2011,02,16,02,20,2.40
2011,02,16,02,21,2.40
2011,02,16,02,22,2.30
2011,02,16,02,23,2.30
2011,02,16,02,24,2.30
2011,02,16,02,25,2.30
2011,02,16,02,26,2.30
2011,02,16,02,27,2.30
2011,02,16,02,28,2.30
2011,02,16,02,29,2.30
2011,02,16,02,30,2.20
2011,02,16,02,31,2.20
2011,02,16,02,32,2.20
2011,02,16,02,33,2.20
2011,02,16,02,34,2.20
2011,02,16,02,35,2.20
2011,02,16,02,36,2.20
2011,02,16,02,37,2.20
2011,02,16,02,38,2.20
2011,02,16,02,39,2.20
2011,02,16,02,40,2.20
2011,02,16,02,41,2.20
2011,02,16,02,42,2.20
2011,02,16,02,43,2.30
2011,02,16,02,44,2.30
2011,02,16,02,45,2.30
2011,02,16,02,46,2.30
2011,02,16,02,47,2.30
2011,02,16,02,48,2.30
2011,02,16,02,49,2.30
2011,02,16,02,50,2.30
2011,02,16,02,51,2.30
2011,02,16,02,52,2.30
2011,02,16,02,53,2.30
2011,02,16,02,54,2.30
2011,02,16,02,55,2.30
2011,02,16,02,56,2.40
2011,02,16,02,57,2.40
2011,02,16,02,58,2.40
2011,02,16,02,59,2.40
2011,02,16,03,00,2.40
2011,02,16,03,01,2.40
2011,02,16,03,06,2.40
2011,02,16,03,07,2.40
2011,02,16,03,08,2.40
2011,02,16,03,09,2.40
2011,02,16,03,10,2.40
2011,02,16,03,11,2.40
2011,02,16,03,12,2.40
2011,02,16,03,13,2.50
2011,02,16,03,14,2.50
2011,02,16,03,15,2.50
2011,02,16,03,16,2.50
2011,02,16,03,17,2.50
2011,02,16,03,18,2.50
2011,02,16,03,19,2.60
2011,02,16,03,20,2.60
2011,02,16,03,21,2.60
2011,02,16,03,22,2.60
2011,02,16,03,23,2.60
2011,02,16,03,24,2.60
2011,02,16,03,25,2.60
2011,02,16,03,26,2.60
2011,02,16,03,27,2.60
2011,02,16,03,28,2.60
2011,02,16,03,29,2.60
2011,02,16,03,30,2.60
2011,02,16,03,31,2.60
2011,02,16,03,32,2.60
2011,02,16,03,33,2.60
2011,02,16,03,34,2.60
2011,02,16,03,35,2.60
2011,02,16,03,36,2.60
2011,02,16,03,37,2.60
2011,02,16,03,38,2.60
2011,02,16,03,39,2.70
2011,02,16,03,40,2.70
2011,02,16,03,41,2.70
2011,02,16,03,42,2.70
2011,02,16,03,43,2.70
2011,02,16,03,44,2.70
2011,02,16,03,45,2.70
2011,02,16,03,46,2.70
2011,02,16,03,47,2.70
2011,02,16,03,48,2.70
2011,02,16,03,49,2.70
2011,02,16,03,50,2.70
2011,02,16,03,51,2.70
2011,02,16,03,52,2.80
2011,02,16,03,53,2.80
2011,02,16,03,54,2.80
2011,02,16,03,55,2.90
2011,02,16,03,56,2.90
2011,02,16,03,57,2.90
2011,02,16,03,58,2.90
2011,02,16,03,59,3.00
2011,02,16,04,00,3.00
2011,02,16,04,01,3.00
2011,02,16,04,02,3.10
2011,02,16,04,03,3.10
2011,02,16,04,04,3.10
2011,02,16,04,05,3.10
2011,02,16,04,06,3.10
2011,02,16,04,07,3.10
2011,02,16,04,08,3.10
2011,02,16,04,09,3.20
2011,02,16,04,10,3.20
2011,02,16,04,11,3.20
2011,02,16,04,12,3.20
2011,02,16,04,13,3.20
2011,02,16,04,14,3.20
2011,02,16,04,15,3.20
2011,02,16,04,16,3.20
2011,02,16,04,17,3.20
2011,02,16,04,18,3.20
2011,02,16,04,19,3.20
2011,02,16,04,20,3.20
2011,02,16,04,21,3.20
2011,02,16,04,22,3.20
2011,02,16,04,23,3.20
2011,02,16,04,24,3.20
2011,02,16,04,25,3.20
2011,02,16,04,26,3.20
2011,02,16,04,27,3.20
2011,02,16,04,28,3.20
2011,02,16,04,29,3.20
2011,02,16,04,30,3.20
2011,02,16,04,31,3.20
2011,02,16,04,32,3.20
2011,02,16,04,33,3.20
2011,02,16,04,34,3.20
2011,02,16,04,35,3.20
2011,02,16,04,36,3.20
2011,02,16,04,37,3.20
2011,02,16,04,38,3.20
2011,02,16,04,39,3.20
2011,02,16,04,40,3.30
2011,02,16,04,41,3.30
2011,02,16,04,42,3.30
2011,02,16,04,43,3.30
2011,02,16,04,44,3.30
2011,02,16,04,45,3.30
2011,02,16,04,46,3.30
2011,02,16,04,47,3.40
2011,02,16,04,48,3.40
2011,02,16,04,49,3.40
2011,02,16,04,50,3.40
2011,02,16,04,51,3.40
2011,02,16,04,52,3.40
2011,02,16,04,53,3.40
2011,02,16,04,54,3.40
2011,02,16,04,55,3.40
2011,02,16,04,56,3.40
2011,02,16,04,57,3.40
2011,02,16,04,58,3.40
2011,02,16,04,59,3.40
2011,02,16,05,00,3.40
2011,02,16,05,01,3.40
2011,02,16,05,02,3.40
2011,02,16,05,03,3.40
2011,02,16,05,04,3.40
2011,02,16,05,05,3.40
2011,02,16,05,06,3.40
2011,02,16,05,07,3.40
2011,02,16,05,08,3.30
2011,02,16,05,09,3.30
2011,02,16,05,10,3.30
2011,02,16,05,11,3.30
2011,02,16,05,12,3.30
2011,02,16,05,13,3.30
2011,02,16,05,14,3.30
2011,02,16,05,15,3.20
2011,02,16,05,16,3.20
2011,02,16,05,17,3.20
2011,02,16,05,18,3.20
2011,02,16,05,19,3.20
2011,02,16,05,20,3.20
2011,02,16,05,21,3.20
2011,02,16,05,22,3.20
2011,02,16,05,23,3.20
2011,02,16,05,24,3.20
2011,02,16,05,25,3.20
2011,02,16,05,26,3.20
2011,02,16,05,27,3.20
2011,02,16,05,28,3.10
2011,02,16,05,29,3.10
2011,02,16,05,30,3.10
2011,02,16,05,31,3.10
2011,02,16,05,32,3.10
2011,02,16,05,33,3.00
2011,02,16,05,34,3.00
2011,02,16,05,35,2.90
2011,02,16,05,36,2.90
2011,02,16,05,37,2.90
2011,02,16,05,38,2.90
2011,02,16,05,39,2.90
2011,02,16,05,40,2.80
2011,02,16,05,41,2.80
2011,02,16,05,42,2.80
2011,02,16,05,43,2.80
2011,02,16,05,44,2.80
2011,02,16,05,45,2.80
2011,02,16,05,46,2.80
2011,02,16,05,47,2.80
2011,02,16,05,48,2.80
2011,02,16,05,49,2.80
2011,02,16,05,50,2.80
2011,02,16,05,51,2.80
2011,02,16,05,52,2.80
2011,02,16,05,53,2.80
2011,02,16,05,54,2.80
2011,02,16,05,55,2.80
2011,02,16,05,56,2.80
2011,02,16,05,57,2.80
2011,02,16,05,58,2.80
2011,02,16,05,59,2.80
2011,02,16,06,00,2.80
2011,02,16,06,01,2.70
2011,02,16,06,02,2.70
2011,02,16,06,03,2.70
2011,02,16,06,04,2.70
2011,02,16,06,05,2.70
2011,02,16,06,06,2.70
2011,02,16,06,07,2.60
2011,02,16,06,08,2.60
2011,02,16,06,09,2.60
2011,02,16,06,10,2.60
2011,02,16,06,11,2.60
2011,02,16,06,12,2.50
2011,02,16,06,13,2.50
2011,02,16,06,14,2.50
2011,02,16,06,15,2.50
2011,02,16,06,16,2.50
2011,02,16,06,17,2.40
2011,02,16,06,18,2.40
2011,02,16,06,19,2.40
2011,02,16,06,20,2.40
2011,02,16,06,21,2.40
2011,02,16,06,22,2.40
2011,02,16,06,23,2.40
2011,02,16,06,24,2.40
2011,02,16,06,25,2.40
2011,02,16,06,26,2.40
2011,02,16,06,27,2.40
2011,02,16,06,28,2.40
2011,02,16,06,29,2.50
2011,02,16,06,30,2.50
2011,02,16,06,31,2.50
2011,02,16,06,32,2.50
2011,02,16,06,33,2.50
2011,02,16,06,34,2.60
2011,02,16,06,35,2.60
2011,02,16,06,36,2.60
2011,02,16,06,37,2.60
2011,02,16,06,38,2.70
2011,02,16,06,39,2.70
2011,02,16,06,40,2.70
2011,02,16,06,41,2.70
2011,02,16,06,42,2.80
2011,02,16,06,43,2.80
2011,02,16,06,44,2.80
2011,02,16,06,45,2.80
2011,02,16,06,46,2.80
2011,02,16,06,47,2.80
2011,02,16,06,48,2.80
2011,02,16,06,49,2.80
2011,02,16,06,50,2.80
2011,02,16,06,51,2.80
2011,02,16,06,52,2.80
2011,02,16,06,53,2.80
2011,02,16,06,54,2.80
2011,02,16,06,55,2.80
2011,02,16,06,56,2.80
2011,02,16,06,57,2.80
2011,02,16,06,58,2.70
2011,02,16,06,59,2.70
2011,02,16,07,00,2.70
2011,02,16,07,01,2.70
2011,02,16,07,02,2.70
2011,02,16,07,03,2.70
2011,02,16,07,04,2.70
2011,02,16,07,05,2.70
2011,02,16,07,06,2.70
2011,02,16,07,07,2.70
2011,02,16,07,08,2.70
2011,02,16,07,09,2.70
2011,02,16,07,10,2.70
2011,02,16,07,11,2.70
2011,02,16,07,12,2.60
2011,02,16,07,13,2.60
2011,02,16,07,14,2.60
2011,02,16,07,15,2.60
2011,02,16,07,16,2.60
2011,02,16,07,17,2.60
2011,02,16,07,18,2.60
2011,02,16,07,19,2.60
2011,02,16,07,20,2.60
2011,02,16,07,21,2.60
2011,02,16,07,22,2.60
2011,02,16,07,23,2.60
2011,02,16,07,24,2.60
2011,02,16,07,25,2.60
2011,02,16,07,26,2.60
2011,02,16,07,27,2.60
2011,02,16,07,28,2.60
2011,02,16,07,29,2.60
2011,02,16,07,30,2.60
2011,02,16,07,31,2.50
2011,02,16,07,32,2.50
2011,02,16,07,33,2.50
2011,02,16,07,34,2.50
2011,02,16,07,35,2.50
2011,02,16,07,36,2.50
2011,02,16,07,37,2.40
2011,02,16,07,38,2.40
2011,02,16,07,39,2.40
2011,02,16,07,40,2.40
2011,02,16,07,41,2.40
2011,02,16,07,42,2.40
2011,02,16,07,43,2.40
2011,02,16,07,44,2.40
2011,02,16,07,45,2.40
2011,02,16,07,46,2.40
2011,02,16,07,47,2.40
2011,02,16,07,48,2.30
2011,02,16,07,49,2.40
2011,02,16,07,50,2.40
2011,02,16,07,51,2.40
2011,02,16,07,52,2.40
2011,02,16,07,53,2.40
2011,02,16,07,54,2.40
2011,02,16,07,55,2.40
2011,02,16,07,56,2.40
2011,02,16,07,57,2.50
2011,02,16,07,58,2.50
2011,02,16,07,59,2.50
2011,02,16,08,00,2.50
2011,02,16,08,01,2.50
2011,02,16,08,02,2.60
2011,02,16,08,03,2.60
2011,02,16,08,04,2.60
2011,02,16,08,05,2.60
2011,02,16,08,06,2.60
2011,02,16,08,07,2.60
2011,02,16,08,08,2.60
2011,02,16,08,09,2.60
2011,02,16,08,10,2.60
2011,02,16,08,11,2.70
2011,02,16,08,12,2.70
2011,02,16,08,13,2.70
2011,02,16,08,14,2.70
2011,02,16,08,15,2.70
2011,02,16,08,16,2.70
2011,02,16,08,17,2.70
2011,02,16,08,18,2.70
2011,02,16,08,19,2.70
2011,02,16,08,20,2.80
2011,02,16,08,21,2.80
2011,02,16,08,22,2.80
2011,02,16,08,23,2.80
2011,02,16,08,24,2.80
2011,02,16,08,25,2.80
2011,02,16,08,26,2.80
2011,02,16,08,27,2.80
2011,02,16,08,28,2.80
2011,02,16,08,29,2.80
2011,02,16,08,30,2.80
2011,02,16,08,31,2.80
2011,02,16,08,32,2.90
2011,02,16,08,33,2.90
2011,02,16,08,34,2.90
2011,02,16,08,35,2.90
2011,02,16,08,36,2.90
2011,02,16,08,37,2.90
2011,02,16,08,38,2.90
2011,02,16,08,39,2.90
2011,02,16,08,40,2.90
2011,02,16,08,41,2.90
2011,02,16,08,42,2.90
2011,02,16,08,43,2.90
2011,02,16,08,44,2.90
2011,02,16,08,45,2.90
2011,02,16,08,46,2.90
2011,02,16,08,47,2.90
2011,02,16,08,48,2.90
2011,02,16,08,49,2.90
2011,02,16,08,50,2.90
2011,02,16,08,51,2.90
2011,02,16,08,52,2.90
2011,02,16,08,53,2.90
2011,02,16,08,54,2.90
2011,02,16,08,55,2.90
2011,02,16,08,56,3.00
2011,02,16,08,57,3.00
2011,02,16,08,58,3.00
2011,02,16,08,59,3.00
2011,02,16,09,00,3.10
2011,02,16,09,01,3.10
2011,02,16,09,02,3.10
2011,02,16,09,03,3.10
2011,02,16,09,04,3.10
2011,02,16,09,05,3.10
2011,02,16,09,06,3.10
2011,02,16,09,07,3.20
2011,02,16,09,08,3.20
2011,02,16,09,09,3.20
2011,02,16,09,10,3.20
2011,02,16,09,11,3.20
2011,02,16,09,12,3.30
2011,02,16,09,13,3.30
2011,02,16,09,14,3.30
2011,02,16,09,15,3.30
2011,02,16,09,16,3.40
2011,02,16,09,17,3.40
2011,02,16,09,18,3.40
2011,02,16,09,19,3.50
2011,02,16,09,20,3.50
2011,02,16,09,21,3.50
2011,02,16,09,22,3.50
2011,02,16,09,23,3.60
2011,02,16,09,24,3.60
2011,02,16,09,25,3.60
2011,02,16,09,26,3.60
2011,02,16,09,27,3.60
2011,02,16,09,28,3.60
2011,02,16,09,29,3.60
2011,02,16,09,30,3.70
2011,02,16,09,31,3.70
2011,02,16,09,32,3.70
2011,02,16,09,33,3.70
2011,02,16,09,34,3.70
2011,02,16,09,35,3.80
2011,02,16,09,36,3.80
2011,02,16,09,37,3.80
2011,02,16,09,38,3.80
2011,02,16,09,39,3.80
2011,02,16,09,40,3.90
2011,02,16,09,41,3.90
2011,02,16,09,42,3.90
2011,02,16,09,43,4.00
2011,02,16,09,44,4.00
2011,02,16,09,45,4.10
2011,02,16,09,46,4.10
2011,02,16,09,47,4.10
2011,02,16,09,48,4.10
2011,02,16,09,49,4.10
2011,02,16,09,50,4.20
2011,02,16,09,51,4.20
2011,02,16,09,52,4.20
2011,02,16,09,53,4.30
2011,02,16,09,54,4.30
2011,02,16,09,55,4.30
2011,02,16,09,56,4.30
2011,02,16,09,57,4.30
2011,02,16,09,58,4.30
2011,02,16,09,59,4.30
2011,02,16,10,00,4.30
2011,02,16,10,01,4.30
2011,02,16,10,02,4.30
2011,02,16,10,03,4.30
2011,02,16,10,04,4.30
2011,02,16,10,05,4.30
2011,02,16,10,06,4.30
2011,02,16,10,07,4.30
2011,02,16,10,08,4.20
2011,02,16,10,09,4.20
2011,02,16,10,10,4.20
2011,02,16,10,11,4.20
2011,02,16,10,12,4.20
2011,02,16,10,13,4.20
2011,02,16,10,14,4.20
2011,02,16,10,15,4.20
2011,02,16,10,16,4.20
2011,02,16,10,17,4.20
2011,02,16,10,18,4.30
2011,02,16,10,19,4.30
2011,02,16,10,20,4.30
2011,02,16,10,21,4.30
2011,02,16,10,22,4.30
2011,02,16,10,23,4.40
2011,02,16,10,24,4.40
2011,02,16,10,25,4.40
2011,02,16,10,26,4.40
2011,02,16,10,27,4.40
2011,02,16,10,28,4.40
2011,02,16,10,29,4.50
2011,02,16,10,30,4.50
2011,02,16,10,31,4.50
2011,02,16,10,32,4.50
2011,02,16,10,33,4.60
2011,02,16,10,34,4.60
2011,02,16,10,35,4.60
2011,02,16,10,36,4.60
2011,02,16,10,37,4.70
2011,02,16,10,38,4.70
2011,02,16,10,39,4.70
2011,02,16,10,40,4.80
2011,02,16,10,41,4.80
2011,02,16,10,42,4.90
2011,02,16,10,43,4.90
2011,02,16,10,44,5.00
2011,02,16,10,45,5.00
2011,02,16,10,46,5.00
2011,02,16,10,47,5.10
2011,02,16,10,48,5.10
2011,02,16,10,49,5.10
2011,02,16,10,50,5.10
2011,02,16,10,51,5.10
2011,02,16,10,52,5.10
2011,02,16,10,53,5.10
2011,02,16,10,54,5.10
2011,02,16,10,55,5.10
2011,02,16,10,56,5.10
2011,02,16,10,57,5.20
2011,02,16,10,58,5.20
2011,02,16,10,59,5.30
2011,02,16,11,00,5.30
2011,02,16,11,01,5.40
2011,02,16,11,02,5.40
2011,02,16,11,03,5.40
2011,02,16,11,04,5.40
2011,02,16,11,05,5.40
2011,02,16,11,06,5.40
2011,02,16,11,07,5.40
2011,02,16,11,08,5.40
2011,02,16,11,09,5.30
2011,02,16,11,10,5.30
2011,02,16,11,11,5.30
2011,02,16,11,12,5.30
2011,02,16,11,13,5.20
2011,02,16,11,14,5.20
2011,02,16,11,15,5.20
2011,02,16,11,16,5.20
2011,02,16,11,17,5.20
2011,02,16,11,18,5.20
2011,02,16,11,19,5.20
2011,02,16,11,20,5.20
2011,02,16,11,21,5.20
2011,02,16,11,22,5.20
2011,02,16,11,23,5.20
2011,02,16,11,24,5.20
2011,02,16,11,25,5.30
2011,02,16,11,26,5.30
2011,02,16,11,27,5.30
2011,02,16,11,28,5.30
2011,02,16,11,29,5.30
2011,02,16,11,30,5.30
2011,02,16,11,31,5.30
2011,02,16,11,32,5.30
2011,02,16,11,33,5.30
2011,02,16,11,34,5.30
2011,02,16,11,35,5.30
2011,02,16,11,36,5.30
2011,02,16,11,37,5.30
2011,02,16,11,38,5.30
2011,02,16,11,39,5.30
2011,02,16,11,40,5.30
2011,02,16,11,41,5.30
2011,02,16,11,42,5.30
2011,02,16,11,43,5.30
2011,02,16,11,44,5.30
2011,02,16,11,45,5.30
2011,02,16,11,46,5.30
2011,02,16,11,47,5.30
2011,02,16,11,48,5.30
2011,02,16,11,49,5.30
2011,02,16,11,50,5.30
2011,02,16,11,51,5.40
2011,02,16,11,52,5.40
2011,02,16,11,53,5.40
2011,02,16,11,54,5.40
2011,02,16,11,55,5.50
2011,02,16,11,56,5.60
2011,02,16,11,57,5.60
2011,02,16,11,58,5.60
2011,02,16,11,59,5.70
2011,02,16,12,00,5.70
2011,02,16,12,01,5.80
2011,02,16,12,02,5.90
2011,02,16,12,03,5.90
2011,02,16,12,04,6.00
2011,02,16,12,05,6.10
2011,02,16,12,06,6.20
2011,02,16,12,07,6.20
2011,02,16,12,08,6.30
2011,02,16,12,09,6.30
2011,02,16,12,10,6.40
2011,02,16,12,11,6.50
2011,02,16,12,12,6.50
2011,02,16,12,13,6.60
2011,02,16,12,14,6.70
2011,02,16,12,15,6.80
2011,02,16,12,16,6.80
2011,02,16,12,17,6.80
2011,02,16,12,18,6.90
2011,02,16,12,19,6.90
2011,02,16,12,20,7.00
2011,02,16,12,21,7.00
2011,02,16,12,22,7.00
2011,02,16,12,23,7.10
2011,02,16,12,24,7.10
2011,02,16,12,25,7.10
2011,02,16,12,26,7.10
2011,02,16,12,27,7.10
2011,02,16,12,28,7.10
2011,02,16,12,29,7.10
2011,02,16,12,30,7.10
2011,02,16,12,31,7.20
2011,02,16,12,32,7.20
2011,02,16,12,33,7.20
2011,02,16,12,34,7.30
2011,02,16,12,35,7.30
2011,02,16,12,36,7.30
2011,02,16,12,37,7.30
2011,02,16,12,38,7.20
2011,02,16,12,39,7.20
2011,02,16,12,40,7.20
2011,02,16,12,41,7.20
2011,02,16,12,42,7.20
2011,02,16,12,43,7.20
2011,02,16,12,44,7.20
2011,02,16,12,45,7.20
2011,02,16,12,46,7.20
2011,02,16,12,47,7.10
2011,02,16,12,48,7.10
2011,02,16,12,49,7.10
2011,02,16,12,50,7.20
2011,02,16,12,51,7.20
2011,02,16,12,52,7.20
2011,02,16,12,53,7.30
2011,02,16,12,54,7.30
2011,02,16,12,55,7.40
2011,02,16,12,56,7.40
2011,02,16,12,57,7.50
2011,02,16,12,58,7.50
2011,02,16,12,59,7.50
2011,02,16,13,00,7.60
2011,02,16,13,01,7.60
2011,02,16,13,02,7.60
2011,02,16,13,03,7.60
2011,02,16,13,04,7.60
2011,02,16,13,05,7.70
2011,02,16,13,06,7.70
2011,02,16,13,07,7.70
2011,02,16,13,08,7.70
2011,02,16,13,09,7.70
2011,02,16,13,10,7.70
2011,02,16,13,11,7.70
2011,02,16,13,12,7.60
2011,02,16,13,13,7.60
2011,02,16,13,14,7.50
2011,02,16,13,15,7.50
2011,02,16,13,16,7.40
2011,02,16,13,17,7.40
2011,02,16,13,18,7.40
2011,02,16,13,19,7.40
2011,02,16,13,20,7.50
2011,02,16,13,21,7.50
2011,02,16,13,22,7.50
2011,02,16,13,23,7.40
2011,02,16,13,24,7.40
2011,02,16,13,25,7.40
2011,02,16,13,26,7.40
2011,02,16,13,27,7.50
2011,02,16,13,28,7.50
2011,02,16,13,29,7.50
2011,02,16,13,30,7.60
2011,02,16,13,31,7.70
2011,02,16,13,32,7.70
2011,02,16,13,33,7.80
2011,02,16,13,34,7.80
2011,02,16,13,35,7.80
2011,02,16,13,36,7.90
2011,02,16,13,37,7.90
2011,02,16,13,38,7.90
2011,02,16,13,39,8.00
2011,02,16,13,40,8.10
2011,02,16,13,41,8.10
2011,02,16,13,42,8.20
2011,02,16,13,43,8.20
2011,02,16,13,44,8.20
2011,02,16,13,45,8.20
2011,02,16,13,46,8.20
2011,02,16,13,47,8.20
2011,02,16,13,48,8.20
2011,02,16,13,49,8.20
2011,02,16,13,50,8.30
2011,02,16,13,51,8.30
2011,02,16,13,52,8.20
2011,02,16,13,53,8.20
2011,02,16,13,54,8.20
2011,02,16,13,55,8.20
2011,02,16,13,56,8.10
2011,02,16,13,57,8.10
2011,02,16,13,58,8.10
2011,02,16,13,59,8.20
2011,02,16,14,00,8.20
2011,02,16,14,01,8.20
2011,02,16,14,02,8.30
2011,02,16,14,03,8.30
2011,02,16,14,04,8.20
2011,02,16,14,05,8.20
2011,02,16,14,06,8.10
2011,02,16,14,07,8.10
2011,02,16,14,08,8.10
2011,02,16,14,09,8.10
2011,02,16,14,10,8.10
2011,02,16,14,11,8.00
2011,02,16,14,12,8.00
2011,02,16,14,13,8.00
2011,02,16,14,14,8.00
2011,02,16,14,15,8.00
2011,02,16,14,16,7.90
2011,02,16,14,17,7.90
2011,02,16,14,18,7.90
2011,02,16,14,19,7.90
2011,02,16,14,20,7.80
2011,02,16,14,21,7.80
2011,02,16,14,22,7.80
2011,02,16,14,23,7.70
2011,02,16,14,24,7.70
2011,02,16,14,25,7.60
2011,02,16,14,26,7.60
2011,02,16,14,27,7.50
2011,02,16,14,28,7.50
2011,02,16,14,29,7.40
2011,02,16,14,30,7.40
2011,02,16,14,31,7.40
2011,02,16,14,32,7.40
2011,02,16,14,33,7.40
2011,02,16,14,34,7.40
2011,02,16,14,35,7.40
2011,02,16,14,36,7.40
2011,02,16,14,37,7.40
2011,02,16,14,38,7.40
2011,02,16,14,39,7.40
2011,02,16,14,40,7.40
2011,02,16,14,41,7.50
2011,02,16,14,42,7.40
2011,02,16,14,43,7.50
2011,02,16,14,44,7.50
2011,02,16,14,45,7.50
2011,02,16,14,46,7.50
2011,02,16,14,47,7.50
2011,02,16,14,48,7.50
2011,02,16,14,49,7.50
2011,02,16,14,50,7.50
2011,02,16,14,51,7.40
2011,02,16,14,52,7.40
2011,02,16,14,53,7.30
2011,02,16,14,54,7.20
2011,02,16,14,55,7.10
2011,02,16,14,56,6.90
2011,02,16,14,57,6.70
2011,02,16,14,58,6.50
2011,02,16,14,59,6.40
2011,02,16,15,00,6.20
2011,02,16,15,01,6.10
2011,02,16,15,02,6.00
2011,02,16,15,03,5.80
2011,02,16,15,04,5.70
2011,02,16,15,05,5.70
2011,02,16,15,06,5.60
2011,02,16,15,07,5.50
2011,02,16,15,08,5.40
2011,02,16,15,09,5.40
2011,02,16,15,10,5.30
2011,02,16,15,11,5.30
2011,02,16,15,12,5.30
2011,02,16,15,13,5.30
2011,02,16,15,14,5.30
2011,02,16,15,15,5.20
2011,02,16,15,16,5.20
2011,02,16,15,17,5.20
2011,02,16,15,18,5.20
2011,02,16,15,19,5.20
2011,02,16,15,20,5.20
2011,02,16,15,21,5.20
2011,02,16,15,22,5.10
2011,02,16,15,23,5.00
2011,02,16,15,24,5.00
2011,02,16,15,25,4.90
2011,02,16,15,26,4.90
2011,02,16,15,27,4.90
2011,02,16,15,28,4.90
2011,02,16,15,29,5.00
2011,02,16,15,30,5.00
2011,02,16,15,31,5.00
2011,02,16,15,32,5.00
2011,02,16,15,33,5.00
2011,02,16,15,34,4.90
2011,02,16,15,35,4.90
2011,02,16,15,36,4.90
2011,02,16,15,37,4.80
2011,02,16,15,38,4.80
2011,02,16,15,39,4.80
2011,02,16,15,40,4.90
2011,02,16,15,41,4.90
2011,02,16,15,42,4.90
2011,02,16,15,43,4.90
2011,02,16,15,44,4.90
2011,02,16,15,45,4.90
2011,02,16,15,46,5.00
2011,02,16,15,47,5.00
2011,02,16,15,48,4.90
2011,02,16,15,49,4.90
2011,02,16,15,50,4.90
2011,02,16,15,51,4.90
2011,02,16,15,52,4.90
2011,02,16,15,53,4.90
2011,02,16,15,54,4.90
2011,02,16,15,55,4.90
2011,02,16,15,56,4.90
2011,02,16,15,57,4.90
2011,02,16,15,58,4.90
2011,02,16,15,59,4.80
2011,02,16,16,00,4.80
2011,02,16,16,01,4.80
2011,02,16,16,02,4.80
2011,02,16,16,03,4.80
2011,02,16,16,04,4.80
2011,02,16,16,05,4.80
2011,02,16,16,06,4.70
2011,02,16,16,07,4.70
2011,02,16,16,08,4.70
2011,02,16,16,09,4.70
2011,02,16,16,10,4.60
2011,02,16,16,11,4.60
2011,02,16,16,12,4.60
2011,02,16,16,13,4.60
2011,02,16,16,14,4.60
2011,02,16,16,15,4.60
2011,02,16,16,16,4.60
2011,02,16,16,17,4.60
2011,02,16,16,18,4.60
2011,02,16,16,19,4.60
2011,02,16,16,20,4.60
2011,02,16,16,21,4.60
2011,02,16,16,22,4.60
2011,02,16,16,23,4.60
2011,02,16,16,24,4.60
2011,02,16,16,25,4.60
2011,02,16,16,26,4.50
2011,02,16,16,27,4.50
2011,02,16,16,28,4.50
2011,02,16,16,29,4.50
2011,02,16,16,30,4.50
2011,02,16,16,31,4.50
2011,02,16,16,32,4.50
2011,02,16,16,33,4.50
2011,02,16,16,34,4.50
2011,02,16,16,35,4.50
2011,02,16,16,36,4.50
2011,02,16,16,37,4.50
2011,02,16,16,38,4.50
2011,02,16,16,39,4.50
2011,02,16,16,40,4.50
2011,02,16,16,41,4.50
2011,02,16,16,42,4.50
2011,02,16,16,43,4.50
2011,02,16,16,44,4.50
2011,02,16,16,45,4.50
2011,02,16,16,46,4.50
2011,02,16,16,47,4.50
2011,02,16,16,48,4.50
2011,02,16,16,49,4.50
2011,02,16,16,50,4.50
2011,02,16,16,51,4.50
2011,02,16,16,52,4.50
2011,02,16,16,53,4.50
2011,02,16,16,54,4.50
2011,02,16,16,55,4.40
2011,02,16,16,56,4.40
2011,02,16,16,57,4.40
2011,02,16,16,58,4.40
2011,02,16,16,59,4.40
2011,02,16,17,00,4.40
2011,02,16,17,01,4.40
2011,02,16,17,02,4.40
2011,02,16,17,03,4.40
2011,02,16,17,04,4.40
2011,02,16,17,05,4.30
2011,02,16,17,06,4.30
2011,02,16,17,07,4.30
2011,02,16,17,08,4.30
2011,02,16,17,09,4.30
2011,02,16,17,10,4.30
2011,02,16,17,11,4.30
2011,02,16,17,12,4.30
2011,02,16,17,13,4.30
2011,02,16,17,14,4.30
2011,02,16,17,15,4.30
2011,02,16,17,16,4.30
2011,02,16,17,17,4.30
2011,02,16,17,18,4.30
2011,02,16,17,19,4.30
2011,02,16,17,20,4.30
2011,02,16,17,21,4.30
2011,02,16,17,22,4.30
2011,02,16,17,23,4.30
2011,02,16,17,24,4.20
2011,02,16,17,25,4.20
2011,02,16,17,26,4.20
2011,02,16,17,27,4.20
2011,02,16,17,28,4.20
2011,02,16,17,29,4.20
2011,02,16,17,30,4.20
2011,02,16,17,31,4.10
2011,02,16,17,32,4.10
2011,02,16,17,33,4.10
2011,02,16,17,34,4.10
2011,02,16,17,35,4.10
2011,02,16,17,36,4.10
2011,02,16,17,37,4.10
2011,02,16,17,38,4.10
2011,02,16,17,39,4.10
2011,02,16,17,40,4.10
2011,02,16,17,41,4.10
2011,02,16,17,42,4.10
2011,02,16,17,43,4.10
2011,02,16,17,44,4.10
2011,02,16,17,45,4.00
2011,02,16,17,46,4.00
2011,02,16,17,47,4.00
2011,02,16,17,48,4.00
2011,02,16,17,49,4.00
2011,02,16,17,50,4.00
2011,02,16,17,51,4.00
2011,02,16,17,52,3.90
2011,02,16,17,53,3.90
2011,02,16,17,54,3.90
2011,02,16,17,55,3.90
2011,02,16,17,56,3.90
2011,02,16,17,57,3.90
2011,02,16,17,58,3.80
2011,02,16,17,59,3.80
2011,02,16,18,00,3.80
2011,02,16,18,01,3.80
2011,02,16,18,02,3.80
2011,02,16,18,03,3.70
2011,02,16,18,04,3.70
2011,02,16,18,05,3.70
2011,02,16,18,06,3.70
2011,02,16,18,07,3.60
2011,02,16,18,08,3.60
2011,02,16,18,09,3.60
2011,02,16,18,10,3.60